792  
ASUS43 KIWX 181310  
RWRIWX  
 
KIWX WEATHER ROUNDUP  
NATIONAL WEATHER SERVICE NORTHERN INDIANA  
800 AM EST SAT NOV 18 2017  
 
NOTE: "FAIR" INDICATES FEW OR NO CLOUDS BELOW 12,000 FEET WITH NO  
SIGNIFICANT WEATHER AND/OR S TO VISIBILITY
.  
 
* THESE STATIONS ARE NOT UNDER NWS QUALITY CONTROL. THEY ALSO MAY NOT  
REPORT WEATHER SUCH AS PRECIPITATION OR FOG.
 
 
INZ001>027-181400-  
NORTHERN INDIANA  
 
CITY SKY/WX TMP DP RH WIND PRES REMARKS
 
GARY* RAIN 48 48 100 N9 29.47F  
VALPARAISO FOG 47 45 93 N5 29.46S VSB 3/4  
MICHIGAN CITY* RAIN 43 43 100 CALM 29.46F  
LAPORTE* DRIZZLE 44 44 100 CALM 29.46F  
KNOX* CLOUDY 45 45 100 E5 29.45F  
SOUTH BEND CLOUDY 44 44 100 E3 29.47F FOG  
ELKHART* CLOUDY 45 45 100 CALM 29.47 FOG  
GOSHEN CLOUDY 46 43 89 SE6 29.47F FOG  
MONTICELLO* LGT RAIN 50 49 96 E3 29.43F  
LOGANSPORT* LGT RAIN 50 50 100 E3 29.44F VSB 3/4  
ROCHESTER* DRIZZLE 50 50 100 NE3 29.45F  
WARSAW* CLOUDY 45 45 100 CALM 29.47F FOG  
AUBURN* CLOUDY 45 45 100 E5 29.49F FOG  
FORT WAYNE LGT RAIN 50 49 96 CALM 29.49F FOG  
HUNTINGTON* RAIN 48 47 96 CALM 29.47F  
MARION* CLOUDY 52 50 94 S10 29.46F FOG  
 

 
INZ028>050-181400-  
CENTRAL INDIANA  
 
CITY SKY/WX TMP DP RH WIND PRES REMARKS
 
LAFAYETTE TSTM 52 52 100 CALM 29.43F  
KOKOMO* CLOUDY 52 51 97 SE7 29.44F  
MUNCIE* CLOUDY 52 48 86 SE8 29.49F  
INDIANAPOLIS TSTM 60 54 80 SW14 29.47F  
 

 
MIZ043>046-050>051-056>058-064>065-071>073-077>080-181400-  
SOUTHWEST LOWER MICHIGAN  
 
CITY SKY/WX TMP DP RH WIND PRES REMARKS
 
BATTLE CREEK CLOUDY 44 43 96 E3 29.48F FOG  
BENTON HARBOR CLOUDY 45 43 93 CALM 29.47S FOG  
COLDWATER* CLOUDY 45 45 100 CALM 29.47F FOG  
HILLSDALE* CLOUDY 43 43 100 CALM 29.48F FOG  
HOLLAND CLOUDY 43 40 89 NE8 29.48F  
GRAND RAPIDS DRIZZLE 43 43 100 N7 29.49S FOG  
KALAMAZOO CLOUDY 44 41 89 CALM 29.48F FOG  
STURGIS* CLOUDY 45 45 100 E3 29.46F FOG  
THREE RIVERS* CLOUDY 45 45 99 CALM 29.48F FOG  
 

 
OHZ001>008-015>018-024>025-181400-  
NORTHWEST OHIO  
 
CITY SKY/WX TMP DP RH WIND PRES REMARKS
 
WAUSEON* FOG 45 45 100 SE8 29.51F VSB 1/2  
DEFIANCE CLOUDY 46 44 93 E3 29.50F FOG  
FINDLAY RAIN 49 46 90 S7 29.53F FOG  
TOLEDO EXPRESS CLOUDY 46 46 100 SE3 29.52F FOG  
TOLEDO METCALF CLOUDY 46 44 93 S5 29.56F FOG  
LIMA LGT RAIN 48 48 100 S12 29.51F  
 

 
AND FOR LAKE MICHIGAN COASTAL AND OPEN LAKE BUOY OBSERVATIONS  
 
STATION/POSITION TEMP WIND PRES VSBY WAVE
 
AIR SEA DIR/SP/G HT/PER  
(F) (DEG/KT/KT) (MB) (MI) (FT/S)  
MICHIGAN CITY 45 40/ 4/ 5 N/A  
BURNS HARBOR 47 CALM 998.0F  
SAINT JOSEPH 45 70/ 2/ 3 999.0  
SOUTH LAKE BUOY 44 49 10/ 16/ 19 999.5 2/ 3  
 

 

 
 
 
CLICK HERE TO GO TO PREVIOUS BULLETINS.

The Nexlab IN Page
The Nexlab OH Page
The Nexlab MI Page Main Text Page